Home > Weather > Jacksonville > Past weeks

Flag for U.S.A. Weather for the Past 2 Weeks in Jacksonville, North Carolina, U.S.A.

Now
41 °F

Overcast.


Feels Like: 35 °F
Forecast: 31 / 50 °F
Wind: 10 mph from North

Location: Jacksonville - New River

Current Time: Feb 6, 2016 at 11:00:41 AM

Latest Report: Feb 6, 2016 at 9:56 AM


Visibility: 10 mi

Pressure: 30.44 "Hg

Humidity: 53%

Dew point: 25 °F

Location of JacksonvilleLocation

Historic Weather in Jacksonville — Graph

°F

Jacksonville Temperature Yesterday

Maximum temperature yesterday: 50 °F (at 12:56 AM)
Minimum temperature yesterday: 33 °F (at 11:56 PM)
Average temperature yesterday: 43 °F

High & Low Weather Summary for the Past Weeks

 TemperatureHumidityPressure
High74 °F (Feb 1, 1:56 PM)97% (Feb 4, 4:56 AM)30.45 "Hg (Feb 4, 4:56 AM)
Low25 °F (Jan 25, 4:56 AM)24% (Jan 25, 12:56 PM)29.41 "Hg (Jan 22, 11:56 PM)
Average48 °F73%30.04 "Hg
* Reported Jan 22 9:56 AM — Feb 6 9:56 AM, Jacksonville, Weather by CustomWeather, © 2016

Note: Actual official high and low records may vary slightly from our data, if they occured in-between our weather recording intervals... More about our weather records

Advertising

Jacksonville Weather History for the Previous 24 Hours

 ConditionsComfort  
Time TempWeatherWind HumidityBarometerVisibility
9:56 AM
Sat, Feb 6
41 °FOvercast.10 mph53%30.44 "Hg10 mi
8:56 AM40 °FPassing clouds.12 mph60%30.42 "Hg10 mi
7:56 AM35 °FScattered clouds.10 mph78%30.43 "Hg10 mi
6:56 AM32 °FClear.6 mph88%30.45 "Hg10 mi
5:56 AM30 °FClear.5 mph89%30.44 "Hg10 mi
4:56 AM31 °FClear.5 mph89%30.42 "Hg10 mi
3:56 AM32 °FClear.No wind88%30.41 "Hg10 mi
2:56 AM33 °FClear.No wind88%30.40 "Hg10 mi
1:56 AM31 °FIce fog.No wind92%30.40 "Hg2 mi
12:56 AM32 °FClear.No wind92%30.41 "Hg7 mi
11:56 PM
Fri, Feb 5
33 °FClear.No wind88%30.41 "Hg10 mi
10:56 PM34 °FClear.No wind85%30.40 "Hg10 mi
9:56 PM36 °FClear.No wind85%30.42 "Hg10 mi
8:56 PM40 °FClear.No wind68%30.38 "Hg10 mi
7:56 PM41 °FClear.6 mph65%30.36 "Hg10 mi
6:56 PM43 °FClear.3 mph58%30.37 "Hg10 mi
5:56 PM43 °FPassing clouds.7 mph58%30.34 "Hg10 mi
4:56 PM47 °FSunny.13 mph48%30.31 "Hg10 mi
3:56 PM47 °FPassing clouds.10 mph50%30.29 "Hg10 mi
2:56 PM46 °FPassing clouds.13 mph54%30.29 "Hg10 mi
1:56 PM46 °FPartly sunny.15 mph56%30.27 "Hg10 mi
12:56 PM46 °FOvercast.15 mph56%30.28 "Hg10 mi
11:56 AM45 °FPartly sunny.15 mph58%30.29 "Hg10 mi
Weather by CustomWeather, © 2016

See weather overviewHow to use our weather pages